Previsão horária em Juchnajcie

Hoje, 19 Junho, Sábado

Tempo Temperatura Precipitação Vento Pressão Humidade
00:00 +18°C° 0 mm 3 m/s 751 mmHg 86%
01:00 +17°C° 0 mm 3 m/s 751 mmHg 89%
02:00 +17°C° 0 mm 3 m/s 751 mmHg 89%
03:00 +17°C° 0 mm 3 m/s 751 mmHg 88%
04:00 +17°C° 0 mm 3 m/s 751 mmHg 88%
05:00 +18°C° 0 mm 3 m/s 751 mmHg 82%
06:00 +20°C° 0 mm 3 m/s 751 mmHg 76%
07:00 +22°C° 0 mm 3 m/s 751 mmHg 71%
08:00 +25°C° 0 mm 3 m/s 751 mmHg 66%
09:00 +26°C° 0 mm 3 m/s 751 mmHg 62%
10:00 +27°C° 0 mm 3 m/s 751 mmHg 58%
11:00 +28°C° 0 mm 3 m/s 751 mmHg 55%
12:00 +29°C° 0 mm 3 m/s 751 mmHg 53%
13:00 +29°C° 0 mm 4 m/s 750 mmHg 50%
14:00 +29°C° 0 mm 3 m/s 750 mmHg 53%
15:00 +29°C° 0 mm 3 m/s 750 mmHg 55%
16:00 +29°C° 0 mm 3 m/s 750 mmHg 58%
17:00 +28°C° 0 mm 3 m/s 749 mmHg 64%
18:00 +26°C° 0 mm 3 m/s 749 mmHg 70%
19:00 +25°C° 0 mm 3 m/s 749 mmHg 76%
20:00 +24°C° 0 mm 3 m/s 749 mmHg 78%
21:00 +22°C° 0 mm 3 m/s 749 mmHg 80%
22:00 +21°C° 0 mm 3 m/s 749 mmHg 82%
23:00 +20°C° 0 mm 3 m/s 749 mmHg 83%

Amanhã, 20 Junho, Domingo

Tempo Temperatura Precipitação Vento Pressão Humidade
00:00 +19°C° 0 mm 3 m/s 750 mmHg 85%
01:00 +19°C° 0 mm 3 m/s 750 mmHg 87%
02:00 +18°C° 0 mm 3 m/s 749 mmHg 88%
03:00 +18°C° 0 mm 3 m/s 749 mmHg 89%
04:00 +18°C° 0 mm 3 m/s 749 mmHg 90%
05:00 +20°C° 0 mm 3 m/s 749 mmHg 85%
06:00 +21°C° 0 mm 4 m/s 749 mmHg 80%
07:00 +23°C° 0 mm 4 m/s 749 mmHg 75%
08:00 +25°C° 0 mm 4 m/s 749 mmHg 70%
09:00 +26°C° 0 mm 4 m/s 749 mmHg 64%
10:00 +28°C° 0 mm 4 m/s 749 mmHg 59%
11:00 +28°C° 0 mm 4 m/s 749 mmHg 57%
12:00 +29°C° 0 mm 4 m/s 749 mmHg 55%
13:00 +29°C° 0 mm 4 m/s 748 mmHg 53%
14:00 +29°C° 0 mm 4 m/s 748 mmHg 56%
15:00 +29°C° 0 mm 4 m/s 748 mmHg 59%
16:00 +29°C° 0 mm 4 m/s 747 mmHg 63%
17:00 +28°C° 0.4 mm 3 m/s 747 mmHg 69%
18:00 +26°C° 0.4 mm 3 m/s 747 mmHg 75%
19:00 +25°C° 0.4 mm 2 m/s 747 mmHg 82%
20:00 +24°C° 0.1 mm 3 m/s 747 mmHg 85%
21:00 +21°C° 0.1 mm 3 m/s 747 mmHg 88%
22:00 +20°C° 0.1 mm 3 m/s 747 mmHg 91%
23:00 +20°C° 0 mm 3 m/s 747 mmHg 92%

Depois de amanhã, 21 Junho, Segunda-feira

Tempo Temperatura Precipitação Vento Pressão Humidade
00:00 +20°C° 0 mm 3 m/s 747 mmHg 93%
01:00 +19°C° 0 mm 3 m/s 747 mmHg 94%
02:00 +19°C° 0 mm 3 m/s 746 mmHg 94%
03:00 +19°C° 0 mm 3 m/s 746 mmHg 94%
04:00 +19°C° 0 mm 3 m/s 746 mmHg 95%
05:00 +20°C° 0 mm 3 m/s 746 mmHg 89%
06:00 +22°C° 0 mm 4 m/s 746 mmHg 84%
07:00 +23°C° 0 mm 4 m/s 746 mmHg 78%
08:00 +26°C° 0 mm 5 m/s 746 mmHg 70%
09:00 +27°C° 0 mm 5 m/s 746 mmHg 63%
10:00 +28°C° 0 mm 5 m/s 746 mmHg 55%
11:00 +29°C° 0 mm 5 m/s 746 mmHg 54%
12:00 +29°C° 0 mm 5 m/s 745 mmHg 52%
13:00 +29°C° 0 mm 5 m/s 745 mmHg 51%
14:00 +29°C° 0 mm 4 m/s 745 mmHg 55%
15:00 +29°C° 0 mm 4 m/s 745 mmHg 59%
16:00 +28°C° 0 mm 4 m/s 745 mmHg 63%
17:00 +27°C° 0.2 mm 3 m/s 745 mmHg 69%
18:00 +25°C° 0.2 mm 3 m/s 744 mmHg 76%
19:00 +24°C° 0.2 mm 3 m/s 744 mmHg 82%
20:00 +22°C° 0 mm 3 m/s 744 mmHg 85%
21:00 +21°C° 0 mm 3 m/s 744 mmHg 88%
22:00 +20°C° 0 mm 3 m/s 744 mmHg 91%
23:00 +20°C° 0 mm 3 m/s 744 mmHg 91%

22 Junho, Terça-feira

Tempo Temperatura Precipitação Vento Pressão Humidade
00:00 +20°C° 0 mm 3 m/s 744 mmHg 92%
01:00 +19°C° 0 mm 3 m/s 744 mmHg 93%
02:00 +19°C° 0 mm 3 m/s 744 mmHg 93%
03:00 +19°C° 0 mm 3 m/s 744 mmHg 93%
04:00 +19°C° 0 mm 3 m/s 744 mmHg 93%
05:00 +21°C° 0 mm 3 m/s 745 mmHg 87%
06:00 +22°C° 0 mm 3 m/s 745 mmHg 82%
07:00 +25°C° 0 mm 4 m/s 745 mmHg 77%
08:00 +26°C° 0.1 mm 4 m/s 745 mmHg 72%
09:00 +27°C° 0.1 mm 4 m/s 745 mmHg 68%
10:00 +29°C° 0.1 mm 4 m/s 745 mmHg 63%
11:00 +29°C° 0.3 mm 4 m/s 746 mmHg 61%
12:00 +30°C° 0.3 mm 4 m/s 746 mmHg 59%
13:00 +30°C° 0.3 mm 4 m/s 746 mmHg 57%
14:00 +29°C° 0.2 mm 3 m/s 746 mmHg 62%
15:00 +29°C° 0.2 mm 2 m/s 746 mmHg 66%
16:00 +28°C° 0.2 mm 2 m/s 746 mmHg 71%
17:00 +27°C° 0.4 mm 2 m/s 746 mmHg 75%
18:00 +26°C° 0.4 mm 1 m/s 746 mmHg 78%
19:00 +25°C° 0.4 mm 1 m/s 746 mmHg 82%
20:00 +24°C° 0.1 mm 1 m/s 747 mmHg 84%
21:00 +23°C° 0.1 mm 1 m/s 747 mmHg 86%
22:00 +22°C° 0.1 mm 1 m/s 747 mmHg 88%
23:00 +21°C° 0 mm 1 m/s 747 mmHg 89%

23 Junho, Quarta-feira

Tempo Temperatura Precipitação Vento Pressão Humidade
00:00 +21°C° 0 mm 1 m/s 747 mmHg 91%
01:00 +20°C° 0 mm 1 m/s 747 mmHg 92%
02:00 +20°C° 0 mm 1 m/s 747 mmHg 92%
03:00 +20°C° 0 mm 1 m/s 747 mmHg 93%
04:00 +20°C° 0 mm 1 m/s 748 mmHg 93%
05:00 +22°C° 0 mm 1 m/s 748 mmHg 88%
06:00 +24°C° 0 mm 1 m/s 748 mmHg 84%
07:00 +25°C° 0 mm 1 m/s 748 mmHg 79%
08:00 +26°C° 0.5 mm 2 m/s 748 mmHg 75%
09:00 +27°C° 0.5 mm 2 m/s 748 mmHg 72%
10:00 +28°C° 0.5 mm 2 m/s 748 mmHg 69%
11:00 +29°C° 0.3 mm 2 m/s 748 mmHg 64%
12:00 +30°C° 0.3 mm 2 m/s 748 mmHg 59%
13:00 +31°C° 0.3 mm 2 m/s 748 mmHg 54%
14:00 +30°C° 0.2 mm 2 m/s 748 mmHg 57%
15:00 +30°C° 0.2 mm 2 m/s 748 mmHg 60%
16:00 +30°C° 0.2 mm 2 m/s 748 mmHg 63%
17:00 +28°C° 0.3 mm 2 m/s 748 mmHg 69%
18:00 +27°C° 0.3 mm 2 m/s 748 mmHg 75%
19:00 +26°C° 0.3 mm 2 m/s 748 mmHg 81%
20:00 +25°C° 0.1 mm 2 m/s 748 mmHg 83%
21:00 +24°C° 0.1 mm 2 m/s 748 mmHg 86%
22:00 +23°C° 0.1 mm 2 m/s 748 mmHg 88%
23:00 +21°C° 0.1 mm 2 m/s 748 mmHg 89%

24 Junho, Quinta-feira

Tempo Temperatura Precipitação Vento Pressão Humidade
00:00 +21°C° 0.1 mm 2 m/s 748 mmHg 90%
01:00 +21°C° 0.1 mm 2 m/s 748 mmHg 91%
02:00 +21°C° 0 mm 2 m/s 748 mmHg 91%
03:00 +21°C° 0 mm 2 m/s 748 mmHg 91%
04:00 +21°C° 0 mm 2 m/s 748 mmHg 91%
05:00 +23°C° 0.2 mm 2 m/s 748 mmHg 88%
06:00 +25°C° 0.2 mm 2 m/s 748 mmHg 86%
07:00 +26°C° 0.2 mm 2 m/s 748 mmHg 83%
08:00 +27°C° 0.5 mm 2 m/s 748 mmHg 75%
09:00 +29°C° 0.5 mm 2 m/s 748 mmHg 66%
10:00 +30°C° 0.5 mm 3 m/s 748 mmHg 58%
11:00 +31°C° 0.1 mm 2 m/s 748 mmHg 55%
12:00 +31°C° 0.1 mm 2 m/s 748 mmHg 52%
13:00 +32°C° 0.1 mm 2 m/s 747 mmHg 50%
14:00 +31°C° 0.9 mm 3 m/s 747 mmHg 57%
15:00 +29°C° 0.9 mm 4 m/s 747 mmHg 64%
16:00 +28°C° 0.9 mm 6 m/s 747 mmHg 71%
17:00 +25°C° 1.3 mm 4 m/s 747 mmHg 79%
18:00 +22°C° 1.3 mm 3 m/s 746 mmHg 87%
19:00 +20°C° 1.3 mm 2 m/s 746 mmHg 94%
20:00 +20°C° 0.3 mm 1 m/s 746 mmHg 95%
21:00 +20°C° 0.3 mm 1 m/s 747 mmHg 95%
22:00 +17°C° 0.3 mm 0 m/s 747 mmHg 95%
23:00 +19°C° 0 mm 1 m/s 747 mmHg 95%
Mostrar mais

Necessitamos do seu Consentimento

A Meteoprog e os seus Fornecedores de Serviços podem armazenar e aceder a dados pessoais como cookies, identificadores do dispositivo ou outras tecnologias semelhantes existentes no seu dispositivo e processar estes dados para personalizar conteúdos e anúncios, assim como funcionalidades nas redes sociais e análise de tráfego.

  • Armazenar e/ou aceder a informações no seu dispositivo

    Os cookies, identificadores do dispositivo ou outras informações podem ser armazenados ou acedidos no seu dispositivo, para os fins acima indicados.

  • Anúncios e conteúdos personalizados, medição de anúncios e conteúdos, dados sobre o público-alvo e desenvolvimento de produtos

    Os anúncios e os conteúdos podem ser personalizados com base num perfil. Podem ser adicionados dados adicionais para uma maior personalização dos anúncios e dos conteúdos. A eficácia dos anúncios e dos conteúdos pode ser medida. Podem ser obtidas informações sobre o público que visualizou os anúncios e os conteúdos. Estes dados podem ser usados para desenvolver ou melhorar sistemas, softwares ou a experiência do utilizador.

Ao clicar em "Eu concordo”, permitirá o uso de cookies, identificadores do dispositivo e web beacons mencionados ou outras tecnologias semelhantes. As configurações do navegador do seu dispositivo podem ser alteradas.

Para certos fins, podem ser invocados interesses legítimos ao invés de consentimento. Pode ler mais informação sobre este assunto na nossa Política de Privacidade e Cookies.